sat.trackr.live / text

‹ back to catalog

KINEIS-1C

NORAD 60081 · 2024-114C

PAYLOAD ACTIVE UNKNOWN

§ Identity

Operator
Country
FR
Launch date
2024-06-20
Launch site
RLLB
Launch vehicle
Mass (kg)
RCS (m²)

External: N2YO · Heavens-Above · Gunter

§ Orbital elements

Epoch: 2026-09-23T00:06:49.298400Z

Period
97.25 min
Inclination
97.9821°
Eccentricity
0.0000997
Mean motion
14.80750782 rev/d
Perigee alt
626.3 km
Apogee alt
627.7 km
Semi-major
7,005.1 km
B*
5.4658e-5
RAAN
289.5891°
Arg perigee
136.4720°
Mean anomaly
223.6571°
Rev number
12,185

§ Raw data

KINEIS-1C1 60081U 24114C   26266.00473725  .00000368  00000+0  54658-4 0  99952 60081  97.9821 289.5891 0000997 136.4720 223.6571 14.80750782121858

JSON: /api/v1/satellites/60081 · /tle

For live sub-satellite position, see the globe view (requires WebGL).

§ Visibility from observer

Set your observer location to see the next 7 days of passes ≥ 10°. The values pass through the URL so the page stays shareable.

No JS? Fill the form by hand. The geolocation button needs JavaScript.

§ Radio — SatNOGS DB

ModeDescriptionDownlinkUplink
BPSK S-band telemetry 2.261 GHz
UNKNOWN S-band telemetry 2.266 GHz

2 transmitters · refreshed weekly from db.satnogs.org